Holland, MI

3:35 PM EDT on June 23, 2017 (GMT -0400)
Tulip City

Weather History for KBIV - January, 2014

Change the Weather History Date:

Saturday, January 25, 2014

  Actual Average Record
Temperature  
Mean Temperature 21 °F 26 °F  
Max Temperature 31 °F 32 °F 67 °F (1950)
Min Temperature 11 °F 19 °F -9 °F (1961)
Degree Days  
Heating Degree Days 44 39  
Month to date heating degree days 1129 966  
Since 1 July heating degree days 3545 3234  
Cooling Degree Days 0 0  
Month to date cooling degree days 0 0  
Year to date cooling degree days 0 0  
Moisture  
Dew Point 12 °F    
Average Humidity 77    
Maximum Humidity 92    
Minimum Humidity 61    
Precipitation  
Precipitation 0.17 in 0.08 in 0.82 in (1975)
Month to date precipitation 2.10 1.69  
Year to date precipitation 2.10 1.69  
Sea Level Pressure  
Sea Level Pressure 29.55 in    
Wind  
Wind Speed 16 mph (NW)    
Max Wind Speed 35 mph    
Max Gust Speed 45 mph    
Visibility 2 miles    
Events Fog , Snow    
T = Trace of Precipitation, MM = Missing Value Source: NWS Daily Summary

Daily Weather History Graph

Daily Weather History Graph

Search for Another Location

Airport or City:

Trip Planner

Search our weather history database for the weather conditions in past years. The results will help you decide how hot, cold, wet, or windy it might be!

Date:

Astronomy

Jan. 25, 2014 Rise Set
Actual Time 8:05 AM EST 5:48 PM EST
Civil Twilight 7:34 AM EST 6:19 PM EST
Nautical Twilight 7:00 AM EST 6:53 PM EST
Astronomical Twilight 6:27 AM EST 7:26 PM EST
Moon 2:36 AM EST (1/25) 12:48 PM EST (1/25)
Length of Visible Light 10h 44m
Length of Day
9h 43m
Waning Crescent, 34% of the Moon is Illuminated
Jan 25
Waning Crescent
Jan 30
New
Feb 6
First Quarter
Feb 14
Full
Feb 22
Last Quarter

Hourly Weather History & Observations

Time (EST) Temp. Windchill Dew Point Humidity Pressure Visibility Wind Dir Wind Speed Gust Speed Precip Events Conditions
12:53 AM 28.0 °F 12.3 °F 26.1 °F 92% 29.41 in 0.2 mi WSW 29.9 mph 39.1 mph 0.04 in Fog , Snow Heavy Snow
1:53 AM 28.9 °F 14.0 °F 27.0 °F 92% 29.37 in 0.2 mi WSW 27.6 mph 42.6 mph 0.03 in Fog , Snow Heavy Snow
2:44 AM 30.0 °F 16.0 °F 28.0 °F 92% 29.32 in 0.8 mi WSW 25.3 mph 36.8 mph 0.03 in Snow Light Snow
2:53 AM 30.0 °F 15.7 °F 28.0 °F 92% 29.35 in 0.5 mi WSW 26.5 mph 34.5 mph 0.03 in Fog , Snow Snow
3:19 AM 30.9 °F 16.9 °F 28.9 °F 92% 29.31 in 0.8 mi West 26.5 mph 33.4 mph 0.01 in Snow Light Snow
3:29 AM 30.9 °F 18.1 °F 30.0 °F 96% 29.31 in 0.5 mi West 21.9 mph 35.7 mph 0.02 in Fog , Snow Snow
3:53 AM 30.9 °F 18.1 °F 28.9 °F 92% 29.34 in 0.8 mi West 21.9 mph 32.2 mph 0.03 in Snow Light Snow
4:15 AM 30.0 °F 17.9 °F 27.0 °F 88% 29.31 in 1.0 mi WNW 18.4 mph 27.6 mph 0.01 in Snow Light Snow
4:21 AM 30.0 °F 19.1 °F 27.0 °F 88% 29.31 in 1.5 mi WNW 15.0 mph 27.6 mph 0.01 in Snow Light Snow
4:33 AM 30.0 °F 21.7 °F 27.0 °F 88% 29.32 in 1.2 mi NW 9.2 mph 18.4 mph 0.01 in Snow Light Snow
4:44 AM 28.9 °F 20.4 °F 27.0 °F 92% 29.32 in 1.5 mi WNW 9.2 mph - 0.01 in Snow Light Snow
4:49 AM 28.4 °F 17.0 °F 26.6 °F 93% 29.32 in 0.8 mi WNW 15.0 mph 21.9 mph 0.02 in Snow Light Snow
4:51 AM 28.4 °F 17.0 °F 26.6 °F 93% 29.32 in 0.5 mi NW 15.0 mph 24.2 mph 0.02 in Fog , Snow Snow
4:53 AM 28.9 °F 15.8 °F 27.0 °F 92% 29.35 in 0.5 mi NW 20.7 mph 31.1 mph 0.03 in Fog , Snow Snow
5:05 AM 28.9 °F 19.2 °F 26.1 °F 89% 29.31 in 1.0 mi WNW 11.5 mph 24.2 mph 0.00 in Snow Light Snow
5:08 AM 28.9 °F 19.8 °F 26.1 °F 89% 29.31 in 3.0 mi WNW 10.4 mph 24.2 mph 0.00 in Snow Light Snow
5:26 AM 30.0 °F 20.0 °F 21.9 °F 72% 29.31 in 10.0 mi WNW 12.7 mph - 0.00 in   Overcast
5:53 AM 30.0 °F 19.1 °F 19.0 °F 64% 29.34 in 10.0 mi WNW 15.0 mph 27.6 mph 0.00 in   Mostly Cloudy
6:53 AM 28.9 °F 16.9 °F 19.9 °F 69% 29.35 in 4.0 mi WNW 17.3 mph 25.3 mph 0.01 in Snow Light Snow
7:36 AM 27.0 °F 16.1 °F 21.9 °F 81% 29.33 in 1.8 mi NNW 12.7 mph 27.6 mph 0.00 in Snow Light Snow
7:50 AM 26.6 °F 16.2 °F 21.2 °F 80% 29.34 in 2.0 mi NW 11.5 mph 24.2 mph 0.00 in Snow Light Snow
7:53 AM 26.1 °F 14.0 °F 21.9 °F 84% 29.37 in 2.0 mi NW 15.0 mph 21.9 mph 0.00 in Snow Light Snow
7:55 AM 26.1 °F 14.5 °F 21.9 °F 84% 29.35 in 1.8 mi NW 13.8 mph 21.9 mph 0.00 in Snow Light Snow
7:58 AM 26.1 °F 13.6 °F 21.9 °F 84% 29.35 in 0.8 mi NW 16.1 mph 23.0 mph 0.00 in Snow Light Snow
8:20 AM 25.0 °F 11.3 °F 21.0 °F 85% 29.36 in 0.5 mi NW 18.4 mph 24.2 mph 0.00 in Fog , Snow Light Snow
8:23 AM 25.0 °F 12.2 °F 21.0 °F 85% 29.36 in 1.0 mi NW 16.1 mph 24.2 mph 0.00 in Snow Light Snow
8:26 AM 25.0 °F 11.3 °F 21.0 °F 85% 29.36 in 1.5 mi NW 18.4 mph 26.5 mph 0.00 in Snow Light Snow
8:33 AM 25.0 °F 14.2 °F 21.0 °F 85% 29.36 in 1.0 mi NW 11.5 mph 26.5 mph 0.00 in Snow Light Snow
8:42 AM 25.0 °F 13.6 °F 21.0 °F 85% 29.37 in 0.5 mi WNW 12.7 mph 21.9 mph 0.00 in Fog , Snow Snow
8:51 AM 24.8 °F 10.3 °F 21.2 °F 86% 29.37 in 0.2 mi NW 20.7 mph 29.9 mph 0.01 in Fog , Snow Snow
8:53 AM 24.1 °F 9.0 °F 21.0 °F 88% 29.40 in 0.2 mi NW 21.9 mph 35.7 mph 0.01 in Fog , Snow Snow
9:06 AM 24.1 °F 11.5 °F 19.0 °F 81% 29.38 in 1.0 mi NW 15.0 mph 36.8 mph 0.00 in Snow Light Snow
9:17 AM 23.0 °F 11.1 °F 19.0 °F 85% 29.39 in 0.5 mi NW 12.7 mph 25.3 mph 0.00 in Fog , Snow Snow
9:28 AM 21.9 °F 6.9 °F 18.0 °F 85% 29.40 in 0.2 mi NNW 19.6 mph 29.9 mph 0.00 in Fog , Snow Snow
9:42 AM 21.0 °F 7.1 °F 16.0 °F 81% 29.42 in 0.5 mi NNW 16.1 mph 25.3 mph 0.00 in Snow Snow
9:53 AM 19.9 °F 4.8 °F 14.0 °F 78% 29.46 in 0.8 mi NNW 18.4 mph 27.6 mph 0.00 in Snow Light Snow
9:55 AM 19.9 °F 6.2 °F 14.0 °F 78% 29.43 in 1.5 mi NNW 15.0 mph 27.6 mph 0.00 in Snow Light Snow
9:57 AM 19.9 °F 5.2 °F 12.9 °F 74% 29.43 in 3.0 mi NNW 17.3 mph 27.6 mph 0.00 in Snow Light Snow
10:12 AM 19.9 °F 6.7 °F 12.9 °F 74% 29.45 in 2.5 mi NNW 13.8 mph 27.6 mph 0.00 in Snow Light Snow
10:17 AM 19.9 °F 4.3 °F 12.9 °F 74% 29.45 in 1.2 mi NNW 19.6 mph 29.9 mph 0.00 in Snow Light Snow
10:21 AM 19.9 °F 4.8 °F 12.9 °F 74% 29.45 in 0.8 mi NNW 18.4 mph 32.2 mph 0.00 in Snow Light Snow
10:36 AM 19.0 °F 4.0 °F 12.9 °F 77% 29.46 in 1.5 mi NNW 17.3 mph 25.3 mph 0.00 in Snow Light Snow
10:53 AM 19.0 °F 3.6 °F 10.0 °F 68% 29.51 in 1.5 mi NNW 18.4 mph 28.8 mph 0.00 in Snow Light Snow
11:01 AM 19.0 °F 6.1 °F 10.0 °F 68% 29.49 in 2.5 mi NNW 12.7 mph 26.5 mph 0.00 in Snow Light Snow
11:09 AM 19.0 °F 5.6 °F 10.0 °F 68% 29.49 in 5.0 mi NNW 13.8 mph 24.2 mph 0.00 in Snow Light Snow
11:53 AM 18.0 °F 2.2 °F 6.1 °F 60% 29.55 in 5.0 mi NW 18.4 mph 28.8 mph 0.00 in   Haze
12:53 PM 17.1 °F 3.0 °F 6.1 °F 62% 29.56 in 5.0 mi NW 13.8 mph 27.6 mph 0.00 in Snow Light Snow
1:05 PM 16.0 °F 0.6 °F 7.0 °F 68% 29.54 in 1.8 mi NW 16.1 mph 31.1 mph 0.00 in Snow Light Snow
1:13 PM 17.1 °F 1.5 °F 8.1 °F 68% 29.54 in 3.0 mi NW 17.3 mph 27.6 mph 0.00 in Snow Light Snow
1:25 PM 17.1 °F 1.0 °F 6.1 °F 62% 29.54 in 2.5 mi NW 18.4 mph 28.8 mph 0.00 in Snow Light Snow
1:32 PM 17.1 °F 1.0 °F 5.0 °F 59% 29.55 in 3.0 mi NW 18.4 mph 32.2 mph 0.00 in   Overcast
1:53 PM 17.1 °F 1.5 °F 7.0 °F 65% 29.58 in 2.0 mi NW 17.3 mph 28.8 mph 0.00 in Snow Light Snow
2:02 PM 17.1 °F 2.0 °F 5.0 °F 59% 29.56 in 4.0 mi WNW 16.1 mph 29.9 mph 0.00 in   Haze
2:47 PM 15.8 °F 0.9 °F 6.8 °F 68% 29.58 in 1.8 mi WNW 15.0 mph 27.6 mph 0.00 in Snow Light Snow
2:50 PM 14.0 °F -2.0 °F 6.8 °F 73% 29.58 in 1.2 mi NW 16.1 mph 26.5 mph 0.00 in Snow Light Snow
2:53 PM 14.0 °F -0.8 °F 8.1 °F 77% 29.62 in 1.0 mi NW 13.8 mph 26.5 mph 0.00 in Snow Light Snow
3:06 PM 15.1 °F -0.6 °F 5.0 °F 64% 29.59 in 1.8 mi NW 16.1 mph 26.5 mph 0.00 in Snow Light Snow
3:23 PM 14.0 °F -2.0 °F 6.1 °F 71% 29.60 in 2.0 mi NW 16.1 mph 26.5 mph 0.00 in Snow Light Snow
3:30 PM 14.0 °F -2.0 °F 6.1 °F 71% 29.60 in 2.0 mi NW 16.1 mph 23.0 mph 0.00 in Snow Light Snow
3:33 PM 14.0 °F -2.0 °F 7.0 °F 74% 29.60 in 0.8 mi NW 16.1 mph 25.3 mph 0.00 in Snow Light Snow
3:41 PM 12.9 °F -2.2 °F 8.1 °F 81% 29.60 in 0.5 mi NW 13.8 mph 20.7 mph 0.00 in Snow Snow
3:53 PM 14.0 °F 1.2 °F 9.0 °F 80% 29.64 in 0.2 mi NW 10.4 mph 17.3 mph 0.00 in Snow Heavy Snow
4:02 PM 14.0 °F -2.5 °F 8.1 °F 77% 29.61 in 1.0 mi NW 17.3 mph 24.2 mph 0.00 in Snow Light Snow
4:21 PM 14.0 °F -2.5 °F 7.0 °F 74% 29.63 in 0.8 mi WNW 17.3 mph 28.8 mph 0.00 in Snow Light Snow
4:30 PM 14.0 °F -2.5 °F 5.0 °F 67% 29.64 in 1.0 mi WNW 17.3 mph 26.5 mph 0.00 in Snow Light Snow
4:41 PM 12.9 °F -2.2 °F 7.0 °F 77% 29.64 in 0.8 mi WNW 13.8 mph 29.9 mph 0.00 in Snow Light Snow
4:49 PM 12.2 °F -5.3 °F 5.0 °F 73% 29.65 in 0.8 mi WNW 18.4 mph 28.8 mph 0.00 in Snow Light Snow
4:53 PM 12.9 °F -1.6 °F 6.1 °F 74% 29.68 in 0.8 mi WNW 12.7 mph 28.8 mph 0.00 in Snow Light Snow
4:55 PM 12.9 °F -4.4 °F 6.1 °F 74% 29.65 in 1.0 mi NW 18.4 mph 28.8 mph 0.00 in Snow Light Snow
4:58 PM 12.9 °F -4.4 °F 5.0 °F 71% 29.65 in 1.5 mi NW 18.4 mph 26.5 mph 0.00 in Snow Light Snow
5:03 PM 12.9 °F -2.8 °F 6.1 °F 74% 29.65 in 0.8 mi NW 15.0 mph 26.5 mph 0.00 in Snow Light Snow
5:21 PM 12.0 °F -3.4 °F 8.1 °F 84% 29.66 in 0.2 mi WNW 13.8 mph - 0.00 in Fog , Snow Heavy Snow
5:31 PM 12.9 °F -2.8 °F 5.0 °F 71% 29.67 in 0.8 mi WNW 15.0 mph 24.2 mph 0.00 in Snow Light Snow
5:34 PM 12.9 °F -2.2 °F 3.0 °F 65% 29.67 in 1.5 mi WNW 13.8 mph 25.3 mph 0.00 in Snow Light Snow
5:39 PM 12.9 °F -2.8 °F 1.9 °F 62% 29.67 in 3.0 mi WNW 15.0 mph 25.3 mph 0.00 in Snow Light Snow
5:44 PM 12.9 °F -3.9 °F 3.0 °F 65% 29.68 in 1.8 mi WNW 17.3 mph 28.8 mph 0.00 in Snow Light Snow
5:53 PM 12.0 °F -6.0 °F 3.9 °F 70% 29.72 in 1.2 mi WNW 19.6 mph 26.5 mph 0.00 in Snow Light Snow
6:07 PM 12.0 °F -4.5 °F 3.9 °F 70% 29.69 in 2.0 mi WNW 16.1 mph 25.3 mph 0.00 in Snow Light Snow
6:12 PM 12.0 °F -4.5 °F 5.0 °F 73% 29.70 in 1.2 mi WNW 16.1 mph 25.3 mph 0.00 in Snow Light Snow
6:17 PM 10.9 °F -4.1 °F 7.0 °F 84% 29.70 in 0.5 mi WNW 12.7 mph 25.3 mph 0.00 in Fog , Snow Snow
6:26 PM 10.9 °F -4.7 °F 7.0 °F 84% 29.70 in 1.0 mi WNW 13.8 mph 20.7 mph 0.00 in Snow Light Snow
6:37 PM 10.9 °F -6.5 °F 6.1 °F 81% 29.71 in 0.8 mi WNW 17.3 mph 27.6 mph 0.00 in Snow Light Snow
6:51 PM 10.4 °F -7.2 °F 6.8 °F 85% 29.72 in 1.0 mi WNW 17.3 mph 25.3 mph 0.00 in Snow Light Snow
6:53 PM 10.9 °F -5.9 °F 6.1 °F 81% 29.75 in 1.0 mi NW 16.1 mph 25.3 mph 0.00 in Snow Light Snow
7:09 PM 10.9 °F -3.4 °F 5.0 °F 77% 29.73 in 2.0 mi WNW 11.5 mph 19.6 mph 0.00 in Snow Light Snow
7:17 PM 12.0 °F -2.7 °F 3.0 °F 67% 29.73 in 5.0 mi WNW 12.7 mph 19.6 mph 0.00 in Snow Light Snow
7:34 PM 10.9 °F -7.5 °F 3.9 °F 73% 29.74 in 1.8 mi WNW 19.6 mph 28.8 mph 0.00 in Snow Light Snow
7:50 PM 10.4 °F -4.8 °F 3.2 °F 73% 29.75 in 3.0 mi WNW 12.7 mph 21.9 mph 0.00 in Snow Light Snow
7:53 PM 12.0 °F -3.4 °F 3.0 °F 67% 29.78 in 3.0 mi WNW 13.8 mph 20.7 mph 0.00 in Snow Light Snow
8:10 PM 10.9 °F -4.1 °F 3.9 °F 73% 29.75 in 2.0 mi WNW 12.7 mph 24.2 mph 0.00 in Snow Light Snow
8:21 PM 12.0 °F 0.5 °F 3.0 °F 67% 29.75 in 5.0 mi NW 8.1 mph 19.6 mph 0.00 in Snow Light Snow
8:53 PM 10.9 °F -3.4 °F 3.9 °F 73% 29.79 in 1.8 mi WNW 11.5 mph 25.3 mph 0.00 in Snow Light Snow
8:58 PM 10.9 °F -3.4 °F 3.0 °F 70% 29.76 in 3.0 mi WNW 11.5 mph 21.9 mph 0.00 in Snow Light Snow
9:05 PM 12.0 °F -4.5 °F 1.9 °F 64% 29.76 in 9.0 mi NW 16.1 mph 23.0 mph 0.00 in   Overcast
9:16 PM 10.9 °F -1.8 °F 3.9 °F 73% 29.76 in 2.5 mi WNW 9.2 mph 23.0 mph 0.00 in Snow Light Snow
9:25 PM 12.0 °F -2.0 °F 1.9 °F 64% 29.76 in 5.0 mi WNW 11.5 mph 24.2 mph 0.00 in Snow Light Snow
9:34 PM 12.0 °F -2.0 °F 3.0 °F 67% 29.76 in 5.0 mi NW 11.5 mph 21.9 mph 0.00 in Snow Light Snow
9:53 PM 12.0 °F -2.0 °F 1.9 °F 64% 29.81 in 7.0 mi NW 11.5 mph 20.7 mph 0.00 in Snow Light Snow
10:00 PM 12.0 °F -4.0 °F 3.9 °F 70% 29.77 in 4.0 mi NW 15.0 mph 21.9 mph 0.00 in Snow Light Snow
10:07 PM 12.0 °F -2.0 °F 3.0 °F 67% 29.77 in 5.0 mi NW 11.5 mph 21.9 mph 0.00 in Snow Light Snow
10:34 PM 12.0 °F -2.0 °F 3.9 °F 70% 29.76 in 2.5 mi WNW 11.5 mph 20.7 mph 0.00 in Snow Light Snow
10:53 PM 12.0 °F 0.5 °F 6.1 °F 77% 29.80 in 2.5 mi WNW 8.1 mph - 0.00 in Snow Light Snow
11:07 PM 12.9 °F -0.2 °F 3.9 °F 67% 29.77 in 6.0 mi WNW 10.4 mph - 0.00 in Snow Light Snow
11:53 PM 12.9 °F -0.9 °F 1.9 °F 62% 29.81 in 9.0 mi WNW 11.5 mph - 0.00 in   Overcast